This is the latest recevied weather packets stored in our database for station/object KVDF. If no packets are shown the sender has not sent any weather packets the latest 10 day(s).
| Time | Temp. | Humidity | Pressure | Rain* | Wind** | Luminosity | Snow |
|---|---|---|---|---|---|---|---|
| 1777851229 | 25.56° C | 50% | 1015.2 hPa | - | - | - | - |
| 1777850631 | 25.56° C | 50% | 1015.2 hPa | - | - | - | - |
| 1777850028 | 25.56° C | 50% | 1015.2 hPa | - | - | - | - |
| 1777849430 | 25.56° C | 50% | 1015.2 hPa | - | - | - | - |
| 1777848828 | 26.67° C | 47% | 1014.9 hPa | - | - | - | - |
| 1777848228 | 26.67° C | 47% | 1014.9 hPa | - | - | - | - |
| 1777847630 | 25.56° C | 47% | 1015.2 hPa | - | - | - | - |
| 1777847027 | 26.67° C | 47% | 1014.9 hPa | - | - | - | - |
| 1777846423 | 26.67° C | 47% | 1014.9 hPa | - | - | - | - |
| 1777845827 | 26.67° C | 47% | 1014.9 hPa | - | - | - | - |
| 1777845226 | 26.67° C | 47% | 1015.2 hPa | - | - | - | - |
| 1777844629 | 26.67° C | 47% | 1015.2 hPa | - | - | - | - |
| 1777844026 | 26.67° C | 47% | 1015.2 hPa | - | - | - | - |
| 1777843427 | 26.67° C | 47% | 1015.2 hPa | - | - | - | - |
| 1777842826 | 25.56° C | 47% | 1015.2 hPa | - | - | - | - |
| 1777842227 | 25.56° C | 47% | 1015.2 hPa | - | - | - | - |
| 1777841625 | 26.67° C | 47% | 1015.6 hPa | - | - | - | - |
| 1777841024 | 26.67° C | 47% | 1015.6 hPa | - | - | - | - |
| 1777840422 | 25.56° C | 50% | 1015.6 hPa | - | - | - | - |
| 1777839827 | 25.56° C | 50% | 1015.6 hPa | - | - | - | - |
| 1777839228 | 26.67° C | 44% | 1015.9 hPa | - | - | - | - |
| 1777838623 | 26.67° C | 44% | 1015.9 hPa | - | - | - | - |
| 1777838024 | 25° C | 50% | 1016.3 hPa | - | - | - | - |
| 1777837427 | 25° C | 50% | 1016.3 hPa | - | - | - | - |
| 1777836825 | 25.56° C | 54% | 1016.9 hPa | - | - | - | - |
* Rain since midnight (hover to see other rain measurements)
** Current wind speed in m/s (hover to see current wind gust speed)